SCP
0 0 1 1 1 1 1 1 1 1 1 1 1 1 1 1 1 1 1 1 1 1 1 1 1 1 0 1 1 1 0 0 1 1 1 0 0 0 0 0 0 0 0
0 0 1 1 1 1 1 1 1 1 1 1 1 1 1 1 1 1 1 1 1 1 1 1 1 1 1 1 1 1 1 1 1 1 1 0 0 0 0 0 0 0 0
1 0 1 1 1 1 1 1 0 0 1 1 1 1 1 1 1 1 1 1 1 1 1 1 1 1 1 1 1 1 1 1 1 1 1 0 0 0 0 1 1 1 0
1 1 1 1 1 1 1 0 0 0 0 1 1 1 1 1 0 0 0 0 0 1 1 1 1 1 1 1 1 1 1 2 2 1 1 0 0 0 0 1 1 1 0
1 1 1 1 1 0 0 0 0 0 0 1 1 1 0 0 0 0 0 0 0 0 1 1 1 0 0 0 0 1 1 1 1 1 1 0 0 0 0 1 1 1 1
0 0 1 1 1 0 0 0 0 1 1 1 1 0 0 0 0 0 0 0 0 0 0 1 0 0 0 0 0 0 1 1 1 1 0 0 0 0 0 0 1 1 1
0 0 0 0 0 0 0 0 1 1 1 1 1 1 0 0 0 0 0 0 0 0 0 0 0 0 0 0 0 0 0 1 1 1 1 0 0 0 0 0 0 1 1
0 0 0 0 0 0 0 0 1 1 1 1 1 0 0 0 0 0 0 0 0 0 0 0 0 0 0 0 0 0 0 0 1 1 1 0 0 0 0 0 0 0 0
0 0 0 0 0 1 1 1 1 1 1 0 0 0 0 0 0 0 0 0 0 0 0 0 0 0 0 0 0 0 0 0 0 0 0 0 1 1 0 0 0 0 0
0 0 0 0 0 0 0 1 1 1 1 1 1 1 0 0 0 0 0 0 0 0 0 0 0 0 0 0 0 0 0 0 0 0 0 1 1 1 0 0 0 0 0
0 0 0 0 0 0 0 0 0 0 1 1 1 1 0 0 0 0 0 0 0 0 0 0 0 0 0 0 0 0 0 0 0 0 0 1 1 1 0 0 0 0 0
0 0 0 0 0 0 0 0 0 0 0 0 0 0 0 0 0 0 0 0 0 0 0 0 0 0 0 0 0 0 0 0 0 0 0 1 1 0 0 0 0 0 0
0 0 0 0 0 0 0 0 0 0 0 0 0 0 0 0 0 0 0 0 0 0 0 0 0 0 0 0 0 0 0 0 0 0 1 1 1 0 0 0 0 0 0
0 0 0 0 0 0 0 0 0 0 0 0 0 0 0 0 0 0 0 0 0 0 0 0 0 0 0 0 0 0 0 0 0 0 1 1 1 1 1 0 0 0 0
0 0 0 0 0 0 0 0 0 0 0 0 0 0 0 0 0 0 0 0 0 0 0 0 0 0 0 0 0 0 0 0 0 0 0 1 1 1 1 1 0 0 0
0 0 0 0 0 0 0 0 0 0 0 0 0 0 0 0 0 0 0 0 0 0 0 0 0 0 0 0 0 0 0 0 0 0 0 0 1 1 1 0 0 0 0
0 0 0 0 0 0 0 0 0 0 0 0 0 0 0 0 0 0 0 0 0 0 0 0 0 0 0 0 0 0 0 0 0 0 0 0 0 0 0 0 0 0 0
0 0 0 0 0 0 0 0 0 0 0 0 0 0 0 0 0 0 0 0 0 0 0 0 0 0 0 0 0 0 0 0 0 0 0 0 0 0 0 0 0 0 0
0 0 0 0 0 0 0 0 0 0 0 0 0 0 0 0 0 0 0 0 0 0 0 0 0 0 0 0 0 0 0 0 0 0 0 0 0 0 0 0 0 0 0
0 0 0 0 0 0 0 0 0 0 0 0 0 0 0 0 0 0 0 0 0 0 0 0 0 0 0 0 0 0 0 0 0 0 0 0 0 0 0 0 0 0 0
0 0 0 0 0 0 0 0 0 0 0 0 0 0 0 0 0 0 0 0 0 0 0 0 0 0 0 0 0 0 0 0 0 0 0 0 0 0 0 0 0 0 0
1 0 0 0 0 0 0 0 0 0 0 0 0 0 0 0 0 0 0 0 0 0 0 0 0 0 0 0 0 0 0 0 0 0 0 0 0 0 0 0 0 0 0
1 0 0 0 0 0 0 0 0 0 0 0 0 0 0 0 0 0 0 0 0 0 0 0 0 0 0 0 0 0 0 0 0 0 0 0 0 0 0 0 0 0 0
1 1 0 0 0 0 0 0 0 0 0 0 0 0 0 0 0 0 0 0 0 0 0 0 0 0 0 0 0 0 0 0 0 0 0 0 0 0 0 0 0 0 0
1 1 0 0 0 0 0 0 0 0 0 0 0 0 0 0 0 0 0 0 0 0 0 0 0 0 0 0 0 0 0 0 0 0 0 0 0 0 0 0 0 0 0
1 1 0 0 0 0 0 0 0 0 0 0 0 0 0 0 0 0 0 0 0 0 0 0 0 0 0 0 0 0 0 0 0 0 0 0 0 0 0 0 0 0 0
Wind_Speed
1 1 6 8 9 9 9 10 10 11 11 11 12 12 13 13 13 13 13 12 12 11 11 10 10 10 10 10 10 9 9 9 9 9 10 10 9 9 9 10 9 6 10
3 2 7 9 9 9 9 10 11 11 11 12 12 12 12 12 12 12 12 12 12 11 10 10 11 10 10 10 10 9 8 8 8 9 9 9 9 9 10 10 9 6 10
5 3 6 9 10 10 10 10 11 11 11 12 12 12 12 11 11 11 11 11 11 11 10 10 11 11 10 10 10 10 9 8 9 10 9 4 5 9 9 10 9 10 10
5 4 5 9 10 10 11 10 11 11 11 11 11 12 11 11 10 10 10 10 10 10 10 10 10 10 10 10 10 11 11 12 12 10 5 4 4 9 9 9 9 9 9
5 3 5 9 10 11 11 11 11 11 11 11 11 11 11 10 10 9 9 9 9 9 9 9 9 10 10 10 10 11 11 11 12 9 5 4 3 8 10 10 10 9 9
5 4 6 10 10 10 11 11 10 11 10 10 10 10 10 9 9 9 8 9 9 8 8 8 9 9 9 10 10 11 11 11 9 5 4 4 3 8 10 10 9 9 9
5 4 5 10 10 10 10 10 10 10 10 9 9 9 8 8 8 8 8 8 8 8 8 8 8 9 9 9 10 10 11 11 6 5 4 3 4 9 10 10 9 9 9
6 4 4 9 10 9 9 9 9 9 9 9 8 7 7 7 7 7 7 7 7 7 7 6 7 7 8 8 9 10 10 9 7 6 4 3 7 9 10 10 9 9 9
5 4 3 3 5 7 8 8 8 7 7 7 7 6 6 6 6 5 5 6 6 5 5 5 5 6 7 8 9 10 11 10 5 3 5 3 7 9 9 9 9 9 9
5 4 3 3 2 2 3 6 6 6 6 5 5 4 4 4 4 4 4 4 4 4 4 3 4 6 7 7 8 10 11 8 5 4 3 4 9 9 9 9 9 9 9
5 3 4 3 3 2 2 3 4 4 4 3 3 4 3 2 1 1 2 3 3 3 3 3 3 5 6 7 9 10 8 4 4 3 3 7 9 10 10 9 9 9 9
5 4 4 4 4 3 2 2 1 1 1 1 1 1 1 1 0 1 1 2 2 3 3 3 4 5 5 4 6 8 4 4 4 3 4 9 10 10 10 10 10 10 10
5 5 5 4 4 3 2 2 1 0 0 0 0 1 1 1 1 1 1 1 2 3 3 4 4 3 4 4 4 4 4 4 3 3 5 10 10 11 11 10 10 9 9
4 4 5 5 4 3 2 2 1 1 1 0 0 1 2 1 1 1 1 1 1 1 2 3 3 4 5 5 5 5 5 4 3 3 5 11 11 11 11 11 10 10 9
4 3 4 5 4 3 3 2 2 1 1 1 1 1 2 2 2 1 1 1 1 2 3 3 4 5 6 6 5 6 5 5 5 4 4 11 12 11 11 11 10 10 10
4 4 4 4 4 4 3 2 2 2 2 2 2 2 3 3 3 2 2 2 2 2 3 4 5 5 5 5 6 5 5 5 5 5 4 7 12 12 11 11 11 10 10
5 4 5 5 5 5 4 3 3 2 3 3 2 3 4 3 3 3 3 3 2 3 4 4 5 5 5 5 5 5 4 4 5 5 5 4 5 10 13 12 12 12 12
5 4 4 5 5 5 4 4 3 3 3 3 3 3 4 4 4 4 3 3 3 3 4 4 4 4 4 4 4 3 3 4 5 5 4 4 4 5 9 13 13 13 13
6 5 4 5 5 5 5 4 4 3 3 2 3 3 3 4 4 4 3 2 3 3 3 4 3 4 4 4 4 4 4 4 4 5 5 5 5 5 5 9 13 14 13
5 5 5 5 5 5 4 4 3 3 3 2 3 3 3 3 4 4 3 3 4 4 3 4 4 4 3 3 5 5 4 4 4 4 4 4 5 6 5 6 6 8 13
5 5 5 5 5 4 3 3 2 2 1 2 2 3 3 3 4 4 3 3 3 3 3 4 4 5 3 3 4 4 4 5 4 3 3 4 5 5 5 5 4 4 5
6 5 5 6 5 5 3 3 3 3 1 1 1 2 3 3 3 3 4 3 3 3 4 4 4 3 1 1 3 3 2 3 4 4 3 3 4 3 4 5 5 5 4
6 7 6 6 5 5 5 4 3 3 2 2 2 1 1 2 3 3 4 3 3 3 3 3 3 4 2 0 1 3 3 2 1 3 3 3 3 3 3 3 5 5 5
6 6 6 6 5 5 6 5 5 4 2 2 1 1 1 2 3 3 3 4 3 3 3 2 2 2 3 1 1 1 2 4 3 1 2 3 3 3 3 4 4 4 4
6 6 6 5 5 5 5 6 6 4 3 1 1 2 1 1 2 3 3 3 3 2 2 3 3 3 2 2 2 1 2 2 3 4 2 1 2 3 3 3 2 2 3
5 5 5 6 4 4 5 6 6 6 4 3 2 2 1 1 1 2 3 3 3 2 3 3 3 4 3 3 2 2 2 2 2 3 3 2 1 1 3 3 3 2 2
Wind_Direction
83 115 103 100 100 95 89 85 87 87 87 91 94 93 93 93 91 90 89 88 87 85 82 80 77 76 76 72 70 71 75 79 81 83 85 85 86 87 89 88 85 79 84
140 115 102 100 101 100 97 93 90 89 90 92 94 95 94 93 92 91 90 90 88 85 83 80 79 77 75 71 68 68 70 75 83 85 85 81 85 88 89 89 88 85 86
111 98 101 99 100 99 99 96 94 92 93 94 95 96 95 94 93 92 91 90 89 85 81 80 79 76 71 68 64 60 59 71 88 90 84 70 78 85 87 89 89 87 86
112 102 105 103 103 102 100 97 94 93 93 95 97 97 96 96 93 92 92 92 89 85 82 79 78 75 69 63 58 57 60 75 87 84 69 56 68 86 86 89 90 91 88
104 98 109 106 106 105 102 99 97 96 95 96 97 96 96 96 94 93 92 93 92 87 82 79 76 72 69 62 56 58 64 73 81 75 62 51 54 85 87 88 88 89 88
109 102 108 105 106 108 105 103 102 101 101 100 98 97 95 92 93 95 94 94 94 89 83 79 76 74 68 60 58 61 68 75 73 65 56 49 54 82 86 87 87 85 84
122 114 114 110 108 108 108 107 104 104 103 102 101 99 97 95 94 96 95 96 95 93 89 81 76 73 67 61 60 66 76 80 74 65 55 51 69 84 84 83 83 82 82
130 122 116 115 114 112 111 111 110 107 106 106 106 104 102 99 98 100 100 101 101 98 92 84 76 71 68 65 66 72 76 77 75 71 60 50 77 84 84 83 83 81 80
130 123 111 113 115 119 120 121 118 116 113 112 110 105 103 103 106 108 109 112 108 101 93 83 75 69 67 65 65 72 75 72 62 57 69 58 80 83 82 81 81 79 78
138 140 143 132 119 117 123 130 131 128 124 119 111 106 102 104 114 116 114 121 113 101 90 68 73 72 66 63 68 75 73 65 53 49 46 68 78 83 84 84 82 80 77
148 161 165 160 159 160 164 151 139 132 125 115 101 103 85 52 62 103 131 123 108 94 87 78 76 73 63 63 76 79 71 58 56 50 50 76 80 81 82 84 83 80 78
159 173 175 176 178 173 167 123 109 115 91 79 65 86 85 61 21 107 90 110 84 68 65 66 62 65 65 64 73 74 66 56 53 49 58 73 77 79 79 81 80 79 79
168 170 171 175 173 166 150 134 129 87 75 61 213 189 143 94 63 44 46 34 32 43 39 42 50 61 74 78 79 75 72 64 51 46 53 67 72 75 77 78 78 79 78
154 161 165 163 161 159 139 135 124 110 89 65 218 128 124 116 104 102 74 41 40 45 58 56 62 74 84 83 84 81 74 69 56 43 54 65 69 74 75 76 76 76 77
153 160 160 151 151 143 134 125 106 104 97 75 62 92 115 113 108 99 89 67 58 72 84 87 80 82 84 84 86 84 77 72 64 51 45 61 64 66 69 71 74 75 77
154 153 144 141 144 129 123 120 118 103 88 69 60 68 97 106 106 98 81 71 66 80 91 96 94 90 84 83 80 78 77 74 67 58 49 51 56 58 59 63 68 72 74
163 154 142 136 128 123 123 123 112 102 92 75 61 60 75 89 96 92 86 80 78 88 88 87 83 82 84 81 76 76 77 76 73 62 58 49 46 52 55 60 63 65 69
154 145 142 129 125 123 118 110 102 93 88 76 67 65 69 78 86 87 86 83 92 91 91 93 88 85 80 77 73 70 73 75 75 70 62 57 50 46 46 57 61 62 66
152 143 128 119 126 124 114 102 95 88 81 74 66 68 68 72 80 90 88 86 96 94 93 103 90 98 96 87 82 70 66 70 71 76 67 60 57 51 44 51 55 55 58
148 142 129 123 126 121 106 91 76 67 58 59 64 69 74 73 80 89 87 83 91 93 85 95 96 87 96 101 89 71 58 60 62 66 70 64 60 60 53 50 45 47 52
149 147 140 135 134 127 116 110 101 88 67 59 65 75 74 78 82 86 90 86 92 100 107 111 104 94 87 100 86 63 41 44 54 57 60 65 61 59 58 54 49 42 40
165 164 152 150 151 149 140 138 137 132 119 112 67 61 69 82 85 96 94 97 99 99 96 101 106 105 105 110 113 102 62 24 25 43 50 66 59 51 58 60 53 48 41
169 170 165 165 159 154 140 115 93 72 54 45 39 38 40 87 92 96 103 103 103 107 120 122 122 121 132 58 103 134 136 165 41 17 35 50 53 53 51 55 58 49 49
179 170 161 164 157 155 145 137 137 138 150 185 185 165 66 77 94 98 106 107 106 104 116 126 119 119 130 129 50 63 125 145 139 102 15 22 42 53 50 57 58 50 45
168 161 161 159 157 160 154 150 146 149 165 162 139 120 92 52 80 100 105 106 107 107 112 105 98 94 110 128 127 108 85 73 92 125 129 13 23 22 38 47 52 49 42
160 153 152 155 164 166 158 155 155 160 159 151 150 142 131 86 64 90 103 107 111 112 111 109 103 96 91 90 91 100 122 125 132 124 133 137 91 4 24 30 37 38 39